SL-16 DEB, 22407

Orbit data source: Space-Track

SL-16 DEB, 22407 is space debris in LEO originally from a launch on Fri, 25 Dec 1992 UTC launched from the Tyuratam Missile And Space Complex (TTMTR). Debris objects in space refer to the collection of defunct objects orbiting the Earth. Examples of debris include non-operational satellites, rocket bodies, and fragments generated from explosions, collisions, or faulty payload assembly.

Loading next visibility...
Identifier
22407, 1992-093CY
Orbit
LEO
Country
Flag of CISCIS
Related business
Manufacturer
Unknown
Mission
Spacecraft
Bus & Motor
Unknown
Mass
Unknown
Launch date (UTC)
1992-12-25 (33 years ago)
Launch vehicle
Unknown
Launch site
Tyuratam Missile And Space Complex (TTMTR)
Object type
Payload
Rocket body
Debris
Shape & HBR
Unknown shape, 0.1 m
Radar Cross Section
Small (<0.1 m²)

Expand to show TLE details & history
Last TLE update: 14 hours ago

TLE from 14 hours ago
0 SL-16 DEB
1 22407U 92093CY  25296.62580631  .00000379  00000-0  33702-3 0  9990
2 22407  70.8606  56.3289 0179362  18.9115 341.8538 13.83951762651302
Epoch: 2025-10-23T15:01Z
TLE epoch observation values (Epoch: 2025-10-23T15:01:09.665Z)
Latitude
0.00001°
Longitude
158.75627°
Altitude
827.577 km
Speed
7.502 km/s
True Right ascension
03h 45m 18s
True Declination
0° 00' 00"
Sunlit
Object was in full shadow at epoch
Visualization orbit readout
Latitude
Unknown
Longitude
Unknown
Altitude
Unknown
Speed
Unknown
Apparent Right ascension
Unknown
Apparent Declination
Unknown
Sunlit
N/A
Visualization observer readout
Local Sidereal Time
00:15:14
Azimuth
Unknown
Elevation
Unknown
Doppler factor
Unknown
Orbital elements
Apogee altitude
1,079.272 km
Perigee altitude
816.471 km
Semi-major axis
7,326.009 km
Eccentricity
0.01794
Inclination
70.8606°
RAAN
56.3289°
Arg. of periapsis
18.9115°
True anomaly
341.19977°
Mean anomaly
341.8538°
Eccentric anomaly
341.5282°
Mean motion
3.46132 °/min
Orbital period
104.01 mins
BSTAR
0.00033702
Loading maneuver chart data...
Computing Atmospheric mass density...
Loading historical data...
Loading historical data...
Loading historical data...
Loading historical data...
Loading historical data...
Loading historical data...
Loading historical data...

Documentation

Showing up to 5 results
|